Regional Weather Roundup
Issued by NWS

Home | Current Version | Previous Version | Text Only | Print | Product List | Glossary Off
Versions: 1 2 3 4 5 6 7 8 9 10 11 12 13 14 15 16 17 18 19 20 21 22 23 24 25 26 27 28 29 30 31 32 33 34 35 36 37 38 39 40 41 42 43 44 45 46 47 48 49 50

000
ASUS45 KTFX 011019
RWRMT
MONTANA HOURLY WEATHER ROUNDUP
NATIONAL WEATHER SERVICE GREAT FALLS MT
419 AM MDT FRI AUG 1 2014

NOTE: "FAIR" INDICATES FEW OR NO CLOUDS BELOW 12000 FEET WITH NO
SIGNIFICANT WEATHER AND/OR OBSTRUCTIONS TO VISIBILITY.

* THESE STATIONS ARE NOT UNDER NWS QUALITY CONTROL. THEY DO NOT
   REPORT WEATHER SUCH AS PRECIPITATION OR FOG.

MTZ001>007-043-011100-
WEST OF THE DIVIDE
CITY           SKY/WX    TMP DP  RH WIND       PRES   REMARKS
KALISPELL      PTCLDY    54  48  80 N9        30.08S
MISSOULA       CLEAR     61  43  52 CALM      30.13S
BUTTE          CLOUDY    52  39  61 SE6       30.28R
MULLAN PASS    MOCLDY    70  28  21 NW5       30.28F
* ESSEX        N/A      N/A N/A N/A N/A        N/A
* LINCOLN      N/A       45  44  96 N/A        N/A
* LOOKOUT PASS N/A       62  41  46 N/A        N/A
* POLSON       N/A       66  39  37 SE2        N/A
* RONAN APT    PTCLDY    57  50  78 N/A        N/A
* SEELEY LAKE  N/A       48  41  77 N/A        N/A
* THOMP F APT  CLOUDY    56  41  57 NE7G12     N/A
$$

MTZ008-052>055-011100-
SOUTHWEST MONTANA
CITY           SKY/WX    TMP DP  RH WIND       PRES   REMARKS
BOZEMAN        PTCLDY    57  43  60 S6        30.20S
DILLON         MOCLDY    57  43  60 S10       30.24S
W YELLOWSTONE  CLEAR     39  39 100 CALM      30.35R
* THREE FORKS  PTCLDY    52  52 100 N/A        N/A
* BOULDER HILL N/A       60  34  38 SW6        N/A
* MONIDA PASS  N/A       46  42  86 W4         N/A
* RAYNOLDS PAS N/A       47   3  16 SE4        N/A
* WHITEHALL    N/A       56  40  55 NW2G9      N/A
* WISE RIVER   N/A       56  40  55 SW4        N/A
$$

MTZ009>010-012-014-046-048-049-054-011100-
EAST SLOPES AND CENTRAL MONTANA
CITY           SKY/WX    TMP DP  RH WIND       PRES   REMARKS
CUT BANK       PTCLDY    57  52  83 W7        30.18R
GREAT FALLS    CLEAR     59  43  56 SW9       30.13S
HELENA         PTCLDY    61  39  44 W5        30.17R
MALMSTROM AFB  CLEAR     59  45  60 SW2       30.15R
* CONRAD       CLEAR     54  52  93 N/A        N/A
* DEARBORN     N/A       55  44  67 S2         N/A
* EAST GLACIER N/A       56  48  75 W2         N/A
* MONARCH      N/A       54  38  55 NW1G8      N/A
* PENDROY      N/A       61  50  67 NW12       N/A
* SAINT MARY   N/A       50  49  96 S3         N/A
* SWEET GRASS  N/A       64  57  78 NW12       N/A
* WHITE SULPH  N/A       53  39  59 NE7        N/A
$$

MTZ011-013-016-021-035-040-045-047-050-051-011100-
NORTH CENTRAL MONTANA
CITY           SKY/WX    TMP DP  RH WIND       PRES   REMARKS
HAVRE          CLEAR     63  46  54 E6        30.08S
LEWISTOWN      PTCLDY    59  45  60 SE5       30.16S
* FORT BENTON  CLEAR     63  43  48 SW8       30.10S
* CHESTER      N/A       66  47  51 NW5        N/A
* DENTON       N/A       56  43  62 SE3        N/A
* GEYSER       N/A       57  42  57 SW6        N/A
* JUDITH GAP   N/A       58  44  60 N/A        N/A
* LOMA         N/A       62  44  52 SW4        N/A
$$

MTZ017>020-022>027-061-062-011100-
NORTHEAST MONTANA
CITY           SKY/WX    TMP DP  RH WIND       PRES   REMARKS
GLASGOW        MOCLDY    70  57  64 NE10      30.02R
GLENDIVE       MOCLDY    64  54  70 CALM      30.02F
JORDAN         PTCLDY    63  43  48 W5        30.05R
SIDNEY         PTCLDY    57  54  90 N6        30.02S
WOLF POINT     CLOUDY    68  57  68 N7        30.01R
* BEAVER HILL  N/A       65  47  52 S1         N/A
* CIRCLE       N/A       69  48  47 N/A        N/A
* LINDSAY DVD  N/A       65  46  50 NE3        N/A
* NAVAJO       N/A       61  58  90 VRB12G17    N/A
$$

MTZ028>042-056>058-011100-
SOUTHCENTRAL AND SOUTHEAST MONTANA
CITY           SKY/WX    TMP DP  RH WIND       PRES   REMARKS
BAKER          MOCLDY    55  48  77 SE5       30.06S
BILLINGS       MOCLDY    68  43  40 SW10      30.11S
LIVINGSTON     PTCLDY    55  39  55 CALM      30.21R
MILES CITY     PTCLDY    68  45  44 S5        30.01S
* LAUREL APT   MOCLDY    63  41  45 N/A        N/A
* ROUNDUP APT  MOCLDY    72  39  30 SW5        N/A
* ALZADA       N/A       62  46  56 N/A        N/A
* HYSHAM       N/A       70  39  32 N/A        N/A
* LAME DEER    N/A       71  36  28 S6         N/A
* REED POINT   N/A       59  48  67 NW1        N/A
* ROSCOE HILL  N/A       64  38  38 S6         N/A
$$

REGIONAL REPORTS...DAKOTAS
CITY           SKY/WX    TMP DP  RH WIND       PRES   REMARKS
WILLISTON      PTCLDY    66  57  73 E7        30.04R
DICKINSON      CLEAR     57  54  90 S9        30.04F
CROSBY         MOCLDY    55  55 100 NE5       30.08R
TIOGA          FAIR      54  54 100 E8        30.10F
WATFORD CITY   CLEAR     57  55  93 CALM      30.02S
BISMARCK       FAIR      59  55  87 NE6       30.07S
GRAND FORKS    FAIR      61  59  93 NW3       30.03R
FARGO          PTCLDY    61  57  87 CALM      30.03R
BUFFALO SD     PTCLDY    63  46  54 NE6       30.01S
RAPID CITY     CLEAR     57  48  72 CALM      30.10F
$$

REGIONAL REPORTS...WYOMING/IDAHO/WASHINGTON
CITY           SKY/WX    TMP DP  RH WIND       PRES   REMARKS
GILLETTE       CLEAR     63  43  48 S15       30.13F
SHERIDAN       PTCLDY    61  41  48 CALM      30.13R
CODY           MOCLDY    63  41  45 SW6       30.22R
YELLOWSTONE LA CLEAR     39  37  93 CALM      30.44R
SALMON         MOCLDY    61  50  67 CALM      30.17S
MULLAN PASS    MOCLDY    70  28  21 NW5       30.28S
SAND POINT     PTCLDY    54  48  80 CALM      30.05R
SPOKANE        CLOUDY    72  36  27 S7        30.02F
$$

REGIONAL REPORTS...ALBERTA
CITY           SKY/WX    TMP DP  RH WIND       PRES   REMARKS
CALGARY        MOCLDY    59  52  78 SW6       30.21S
LETHBRIDGE     MOCLDY    57  54  90 W9        30.16R
MEDICINE HAT   CLOUDY    64  61  90 E3        30.08R
EDMONTON       MOCLDY    54  52  93 NW2       30.18R
WATERTON GATE  N/A       48  46  93 N2         N/A
CARDSTON       N/A       55  54  96 SE2        N/A
MILK RIVER     N/A       64  55  73 W2         N/A
$$

REGIONAL REPORTS...SASKATCHEWAN
CITY           SKY/WX    TMP DP  RH WIND       PRES   REMARKS
SWIFT CURRENT  CLEAR     63  52  68 SE3       30.05S
MOOSE JAW      CLOUDY    61  59  93 SE7       30.05R
REGINA         MOCLDY    61  57  87 SE9       30.08F
VAL MARIE      N/A       55  52  90 N1         N/A
ASSINIBOIA     N/A       66  57  73 SE7        N/A
CORONACH       N/A       64  59  84 NE12G21    N/A

$$




USA.gov is the U.S. government's official web portal to all federal, state and local government web resources and services.